When you browse on this site, cookies collect data to enhance your experience and personalize the content and advertising you see.
Visit our Privacy Policy to learn more. By continuing to use the site, you agree to this use of cookies and data.
  • In United Kingdom
  • List of Countries
  • For 7 days
  • Water Temperature
  • Weather Map
  • Weather Widgets
  • user-avatar
    Login

    Hourly Weather Kingswood

    Today, 5 April, Sunday

    Time Temperature Precipitation Wind Pressure Humidity
    00:00 +6°C° 0 mm 4 mps 753 mmHg 86%
    01:00 +6°C° 0 mm 4 mps 753 mmHg 87%
    02:00 +6°C° 0 mm 5 mps 752 mmHg 88%
    03:00 +6°C° 0 mm 5 mps 752 mmHg 89%
    04:00 +6°C° 0 mm 5 mps 751 mmHg 90%
    05:00 +6°C° 0 mm 5 mps 751 mmHg 91%
    06:00 +5°C° 0 mm 4 mps 751 mmHg 91%
    07:00 +7°C° 0 mm 5 mps 750 mmHg 87%
    08:00 +9°C° 0 mm 6 mps 750 mmHg 83%
    09:00 +11°C° 0 mm 7 mps 750 mmHg 78%
    10:00 +12°C° 0 mm 7 mps 750 mmHg 75%
    11:00 +13°C° 0 mm 8 mps 749 mmHg 73%
    12:00 +15°C° 0 mm 8 mps 749 mmHg 70%
    13:00 +15°C° 0 mm 8 mps 749 mmHg 71%
    14:00 +15°C° 0 mm 8 mps 748 mmHg 72%
    15:00 +15°C° 0 mm 8 mps 748 mmHg 73%
    16:00 +14°C° 0 mm 7 mps 747 mmHg 76%
    17:00 +14°C° 0 mm 7 mps 747 mmHg 79%
    18:00 +13°C° 0 mm 6 mps 747 mmHg 81%
    19:00 +13°C° 0 mm 6 mps 747 mmHg 81%
    20:00 +11°C° 0 mm 7 mps 747 mmHg 80%
    21:00 +11°C° 0 mm 7 mps 747 mmHg 80%
    22:00 +11°C° 0 mm 7 mps 747 mmHg 82%
    23:00 +11°C° 0 mm 7 mps 747 mmHg 85%

    Tomorrow, 6 April, Monday

    Time Temperature Precipitation Wind Pressure Humidity
    00:00 +11°C° 0 mm 7 mps 747 mmHg 88%
    01:00 +11°C° 0 mm 7 mps 748 mmHg 88%
    02:00 +10°C° 0 mm 6 mps 748 mmHg 88%
    03:00 +9°C° 0 mm 6 mps 749 mmHg 87%
    04:00 +8°C° 0 mm 5 mps 749 mmHg 90%
    05:00 +8°C° 0 mm 4 mps 750 mmHg 92%
    06:00 +7°C° 0 mm 4 mps 751 mmHg 94%
    07:00 +8°C° 0 mm 4 mps 752 mmHg 88%
    08:00 +9°C° 0 mm 5 mps 753 mmHg 81%
    09:00 +10°C° 0 mm 5 mps 753 mmHg 75%
    10:00 +12°C° 0 mm 5 mps 754 mmHg 71%
    11:00 +12°C° 0 mm 5 mps 755 mmHg 68%
    12:00 +13°C° 0 mm 5 mps 755 mmHg 64%
    13:00 +13°C° 0 mm 5 mps 756 mmHg 64%
    14:00 +13°C° 0 mm 5 mps 757 mmHg 63%
    15:00 +13°C° 0 mm 5 mps 757 mmHg 63%
    16:00 +12°C° 0 mm 4 mps 758 mmHg 66%
    17:00 +11°C° 0 mm 3 mps 758 mmHg 70%
    18:00 +10°C° 0 mm 3 mps 759 mmHg 73%
    19:00 +8°C° 0 mm 2 mps 760 mmHg 76%
    20:00 +8°C° 0 mm 1 mps 761 mmHg 78%
    21:00 +6°C° 0 mm 1 mps 761 mmHg 80%
    22:00 +6°C° 0 mm 1 mps 762 mmHg 81%
    23:00 +6°C° 0 mm 1 mps 762 mmHg 81%

    Day after tomorrow, 7 April, Tuesday

    Time Temperature Precipitation Wind Pressure Humidity
    00:00 +4°C° 0 mm 0 mps 762 mmHg 82%
    01:00 +5°C° 0 mm 1 mps 763 mmHg 82%
    02:00 +5°C° 0 mm 1 mps 763 mmHg 82%
    03:00 +5°C° 0 mm 1 mps 763 mmHg 83%
    04:00 +5°C° 0 mm 1 mps 763 mmHg 83%
    05:00 +5°C° 0 mm 1 mps 763 mmHg 83%
    06:00 +5°C° 0 mm 1 mps 763 mmHg 84%
    07:00 +7°C° 0 mm 1 mps 764 mmHg 80%
    08:00 +8°C° 0 mm 2 mps 764 mmHg 76%
    09:00 +10°C° 0 mm 2 mps 764 mmHg 72%
    10:00 +13°C° 0 mm 2 mps 764 mmHg 69%
    11:00 +14°C° 0 mm 2 mps 764 mmHg 65%
    12:00 +15°C° 0 mm 2 mps 764 mmHg 62%
    13:00 +16°C° 0 mm 2 mps 763 mmHg 61%
    14:00 +16°C° 0 mm 2 mps 763 mmHg 60%
    15:00 +16°C° 0 mm 2 mps 763 mmHg 59%
    16:00 +15°C° 0 mm 1 mps 763 mmHg 64%
    17:00 +14°C° 0 mm 1 mps 763 mmHg 69%
    18:00 +13°C° 0 mm 1 mps 762 mmHg 74%
    19:00 +12°C° 0 mm 1 mps 763 mmHg 77%
    20:00 +10°C° 0 mm 1 mps 763 mmHg 80%
    21:00 +9°C° 0 mm 1 mps 763 mmHg 83%
    22:00 +8°C° 0 mm 1 mps 763 mmHg 84%
    23:00 +8°C° 0 mm 1 mps 763 mmHg 84%

    8 April, Wednesday

    Time Temperature Precipitation Wind Pressure Humidity
    00:00 +6°C° 0 mm 0 mps 763 mmHg 85%
    01:00 +6°C° 0 mm 0 mps 763 mmHg 85%
    02:00 +7°C° 0 mm 1 mps 762 mmHg 86%
    03:00 +7°C° 0 mm 1 mps 762 mmHg 86%
    04:00 +7°C° 0 mm 1 mps 762 mmHg 88%
    05:00 +7°C° 0 mm 1 mps 762 mmHg 89%
    06:00 +7°C° 0 mm 1 mps 762 mmHg 90%
    07:00 +9°C° 0 mm 1 mps 762 mmHg 87%
    08:00 +11°C° 0 mm 1 mps 762 mmHg 84%
    09:00 +13°C° 0 mm 1 mps 762 mmHg 82%
    10:00 +15°C° 0 mm 1 mps 762 mmHg 78%
    11:00 +16°C° 0 mm 1 mps 762 mmHg 74%
    12:00 +18°C° 0 mm 1 mps 761 mmHg 70%
    13:00 +19°C° 0 mm 1 mps 761 mmHg 70%
    14:00 +19°C° 0 mm 1 mps 761 mmHg 69%
    15:00 +19°C° 0 mm 1 mps 760 mmHg 69%
    16:00 +18°C° 0 mm 1 mps 760 mmHg 73%
    17:00 +15°C° 0 mm 0 mps 760 mmHg 76%
    18:00 +15°C° 0 mm 0 mps 760 mmHg 80%
    19:00 +13°C° 0 mm 0 mps 760 mmHg 83%
    20:00 +12°C° 0 mm 0 mps 760 mmHg 85%
    21:00 +11°C° 0 mm 0 mps 760 mmHg 87%
    22:00 +10°C° 0 mm 0 mps 760 mmHg 88%
    23:00 +10°C° 0 mm 0 mps 760 mmHg 89%

    9 April, Thursday

    Time Temperature Precipitation Wind Pressure Humidity
    00:00 +9°C° 0 mm 0 mps 760 mmHg 90%
    01:00 +10°C° 0 mm 1 mps 760 mmHg 91%
    02:00 +10°C° 0 mm 1 mps 759 mmHg 92%
    03:00 +10°C° 0 mm 1 mps 759 mmHg 93%
    04:00 +10°C° 0 mm 1 mps 759 mmHg 93%
    05:00 +9°C° 0 mm 1 mps 759 mmHg 94%
    06:00 +9°C° 0 mm 1 mps 759 mmHg 94%
    07:00 +10°C° 0 mm 2 mps 759 mmHg 89%
    08:00 +13°C° 0 mm 2 mps 759 mmHg 85%
    09:00 +15°C° 0 mm 2 mps 759 mmHg 81%
    10:00 +16°C° 0 mm 2 mps 759 mmHg 77%
    11:00 +18°C° 0 mm 2 mps 759 mmHg 74%
    12:00 +19°C° 0 mm 3 mps 759 mmHg 70%
    13:00 +19°C° 0.1 mm 3 mps 759 mmHg 70%
    14:00 +19°C° 0.1 mm 3 mps 758 mmHg 69%
    15:00 +20°C° 0.1 mm 4 mps 758 mmHg 69%
    16:00 +19°C° 0 mm 3 mps 758 mmHg 73%
    17:00 +17°C° 0 mm 3 mps 758 mmHg 77%
    18:00 +16°C° 0 mm 3 mps 757 mmHg 81%
    19:00 +15°C° 0 mm 2 mps 758 mmHg 82%
    20:00 +13°C° 0 mm 2 mps 758 mmHg 83%
    21:00 +12°C° 0 mm 2 mps 758 mmHg 84%
    22:00 +10°C° 0 mm 2 mps 758 mmHg 84%
    23:00 +10°C° 0 mm 2 mps 758 mmHg 85%

    10 April, Friday

    Time Temperature Precipitation Wind Pressure Humidity
    00:00 +9°C° 0 mm 2 mps 758 mmHg 85%
    01:00 +9°C° 0 mm 2 mps 758 mmHg 86%
    02:00 +9°C° 0 mm 2 mps 758 mmHg 88%
    03:00 +9°C° 0 mm 2 mps 757 mmHg 89%
    04:00 +9°C° 0 mm 2 mps 757 mmHg 89%
    05:00 +9°C° 0 mm 2 mps 757 mmHg 90%
    06:00 +10°C° 0 mm 1 mps 757 mmHg 90%
    07:00 +12°C° 0 mm 1 mps 757 mmHg 86%
    08:00 +13°C° 0 mm 1 mps 757 mmHg 83%
    09:00 +15°C° 0 mm 2 mps 757 mmHg 79%
    10:00 +16°C° 0 mm 2 mps 757 mmHg 77%
    11:00 +17°C° 0 mm 2 mps 757 mmHg 74%
    12:00 +18°C° 0 mm 2 mps 757 mmHg 72%
    13:00 +18°C° 0.1 mm 2 mps 757 mmHg 73%
    14:00 +18°C° 0.1 mm 2 mps 757 mmHg 74%
    15:00 +18°C° 0.1 mm 2 mps 757 mmHg 76%
    16:00 +17°C° 0.3 mm 2 mps 757 mmHg 80%
    17:00 +16°C° 0.3 mm 1 mps 756 mmHg 84%
    18:00 +14°C° 0.3 mm 1 mps 756 mmHg 88%
    19:00 +14°C° 0.4 mm 1 mps 757 mmHg 88%
    20:00 +13°C° 0.4 mm 1 mps 757 mmHg 89%
    21:00 +13°C° 0.4 mm 1 mps 757 mmHg 90%
    22:00 +13°C° 0.2 mm 1 mps 757 mmHg 91%
    23:00 +13°C° 0.2 mm 2 mps 757 mmHg 92%
    Show more